Weather in Calabasas

United States     34°08′09″N   118°41′04″W
temp.,
°C
wind,
m/s
gust,
m/s
humid.,
%
clouds,
%
prec.,
mm/h
press.,
hPa
HPBL,
m
25 may, wed
wed2523:00+16s11771 0.0 101031
02:00+14wsw11825 0.0 101026
05:00+14ene11800 0.0 101014
08:00+20ssw11590 0.0 1011194
11:00+28sw21335 0.0 1011706
14:00+31wsw332946 0.0 10101005
17:00+27w433918 0.0 1010582
20:00+17w337416 0.0 101164
26 may, thu
thu2623:00+14nw008949 0.0 101348
02:00+14se018730 0.0 101239
05:00+13se11865 0.0 101231
08:00+19sse116418 0.0 1013332
11:00+25s223897 0.0 1013883
14:00+28sw44285 0.0 10121257
17:00+26sw54330 0.0 1012948
20:00+17w337177 0.0 101497
27 may, fri
fri2723:00+13wnw119038 0.0 101658
02:00+13sse0189100 0.0 101552
05:00+11sw11895 0.0 101439
08:00+16wsw11725 0.0 1015357
11:00+23sw224118 0.0 1015879
14:00+26wsw6436100 0.0 10141101
17:00+22w4344100 0.0 1013616
20:00+14wnw3375100 0.0 101475
28 may, sat
sat2823:00+13nw1183100 0.0 101445
02:00+13e1182100 0.0 101241
05:00+13se118596 0.0 101242
08:00+16se116920 0.0 1012345
11:00+23sw334462 0.0 10111002
14:00+24wsw664215 0.0 1010982
17:00+22wsw44455 0.0 1008782
20:00+17sw22604 0.0 100748
29 may, sun
sun2923:00+15ese12755 0.0 100854
02:00+13ssw018120 0.0 100734
05:00+12n118299 0.0 100731
08:00+17nnw115813 0.0 1008454
11:00+23wsw33385 0.0 10071269
14:00+23wsw77320 0.0 1006839
17:00+23sw33260 0.0 1004549
20:00+18wsw33360 0.0 100445